Погода в Тарутино

Украина / Одесская область     46°11′12″N   29°08′55″E
темп.,
°C
ветер,
м/с
пор.,
м/с
влажн.,
%
обл.,
%
осадки,
мм/ч
давл.,
гПа
погр.,
м
5 марта, пт
пт523:00+9зюз596392 0.0 1012151
02:00+7з345975 0.0 101259
05:00+6ссз346462 0.0 101241
08:00+6св367047 0.0 1012204
11:00+11юв235577 0.0 1012481
14:00+14зюз454184 0.0 10111149
17:00+13з3746100 0.0 1010246
20:00+10юз5104955 0.0 1012175
6 марта, сб
сб623:00+7сз71182100 0.0 1014602
02:00+4ссз81279100 0.0 1017744
05:00+2с91275100 0.0 1020789
08:00+1с81168100 0.0 1023809
11:00+3с7944100 0.0 10251318
14:00+5с793498 0.0 10261690
17:00+4с68300 0.0 10271947
20:00+2с224416 0.0 102954
7 марта, вс
вс723:00+1зсз23550 0.0 103041
02:00−1сз37670 0.0 1030159
05:00−1сз36650 0.0 1029154
08:000з23500 0.0 1029241
11:00+4зюз68410 0.0 10271334
14:00+6зюз68380 0.0 10241437
17:00+7зюз58420 0.0 10211390
20:00+3юз48570 0.0 1020193
8 марта, пн
пн823:00+2ююз49646 0.0 1020215
02:00+1юз377543 0.0 1019156
05:000зюз227718 0.0 101730
08:00+2юз00629 0.0 101846
11:00+6в334033 0.0 1017847
14:00+8юв323767 0.0 10161274
17:00+8ю233773 0.0 10141310
20:00+4ююз225353 0.0 101523
9 марта, вт
вт923:00+3ююв126423 0.0 101522
02:00+2ссз226522 0.0 101622
05:00+1с410680 0.0 1017238
08:00+1с710746 0.0 1019539
11:00+4с67468 0.0 10201065
14:00+5с67384 0.0 10201369
17:00+4с56370 0.0 10201487
20:00+1ссв59521 0.0 1023469